Location: Bois de la Silve
(44.4667°N, 6.7833°E)
Time: 03:28:30
(UTC+00:00)

SL-8 R/B - Pass Details

Date: 01 November 2020
Orbit: 657 x 667 km, 48.4° (Epoch: 30 November)

Event Time Altitude Azimuth Distance (km) Brightness Sun altitude
Rises 04:54:52 0° 183° (S) 2,978 7.1 -14.0°
Reaches altitude 10° 04:58:47 10° 151° (SSE) 2,074 6.8 -13.3°
Maximum altitude 05:00:24 12° 131° (SE) 1,970 7.0 -13.0°
Drops below altitude 10° 05:02:02 10° 111° (ESE) 2,081 7.6 -12.7°
Sets 05:05:58 0° 79° (E) 3,001 8.6 -12.0°
